This is the latest recevied weather packets stored in our database for station/object DB5WY-13. If no packets are shown the sender has not sent any weather packets the latest 10 day(s).
| Time | Temp. | Humidity | Pressure | Rain* | Wind** | Luminosity | Snow |
|---|---|---|---|---|---|---|---|
| 1777713611 | 25.56° C | 32% | 1023 hPa | 0 mm | - | - | - |
| 1777713011 | 24.44° C | 32% | 1023 hPa | 0 mm | - | - | - |
| 1777712411 | 23.89° C | 33% | 1023.1 hPa | 0 mm | - | - | - |
| 1777711811 | 23.89° C | 34% | 1023 hPa | 0 mm | - | - | - |
| 1777711211 | 23.33° C | 34% | 1023.1 hPa | 0 mm | - | - | - |
| 1777710611 | 22.78° C | 35% | 1023 hPa | 0 mm | - | - | - |
| 1777710011 | 22.78° C | 35% | 1023.2 hPa | 0 mm | - | - | - |
| 1777709411 | 21.67° C | 36% | 1023.2 hPa | 0 mm | - | - | - |
| 1777708811 | 21.67° C | 36% | 1023.3 hPa | 0 mm | - | - | - |
| 1777708211 | 20.56° C | 37% | 1023.3 hPa | 0 mm | - | - | - |
| 1777707611 | 20.56° C | 38% | 1023.1 hPa | 0 mm | - | - | - |
| 1777707011 | 19.44° C | 39% | 1023.1 hPa | 0 mm | - | - | - |
| 1777706411 | 18.89° C | 38% | 1023.3 hPa | 0 mm | - | - | - |
| 1777705811 | 20° C | 37% | 1023.4 hPa | 0 mm | - | - | - |
| 1777705211 | 20° C | 37% | 1023.3 hPa | 0 mm | - | - | - |
| 1777704611 | 19.44° C | 38% | 1023.3 hPa | 0 mm | - | - | - |
| 1777704011 | 20° C | 38% | 1023.2 hPa | 0 mm | - | - | - |
| 1777703411 | 19.44° C | 38% | 1023.2 hPa | 0 mm | - | - | - |
| 1777702811 | 20° C | 38% | 1023.2 hPa | 0 mm | - | - | - |
| 1777702211 | 20° C | 38% | 1023.1 hPa | 0 mm | - | - | - |
| 1777701611 | 20.56° C | 40% | 1023.2 hPa | 0 mm | - | - | - |
| 1777701011 | 20.56° C | 40% | 1023.3 hPa | 0 mm | - | - | - |
| 1777700411 | 19.44° C | 43% | 1023.3 hPa | 0 mm | - | - | - |
| 1777699812 | 18.89° C | 43% | 1023.2 hPa | 0 mm | - | - | - |
| 1777699211 | 17.78° C | 46% | 1023.1 hPa | 0 mm | - | - | - |
* Rain latest hour (hover to see other rain measurements)
** Current wind speed in m/s (hover to see current wind gust speed)